Voltar ao catálogo

STARLINK-3199

AtivoComunicaçõesVLEO
NORAD 49760·PAYLOAD·🇺🇸 United States

Lançado Dec 2, 2021 de Cape Canaveral Space Force Station

Loading…

Próximas Passagens (próximas 24 horas)

TLE

AtualizadoSource: CelesTrak SupGP

Época: Sep 15, 2026, 00:50 UTC

1 49760C 21115AN  26258.03520833  .00003839  00000+0  11343-3 0  2588
2 49760  53.1597 354.9277 0001191  83.4924 141.4722 15.34384723    19

Acompanhe STARLINK-3199 em tempo real com AllMySat

Download on the App Store